This is the latest recevied weather packets stored in our database for station/object OE9GTV. If no packets are shown the sender has not sent any weather packets the latest 10 day(s).
| Time | Temp. | Humidity | Pressure | Rain* | Wind** | Luminosity | Snow |
|---|---|---|---|---|---|---|---|
| 1777859474 | 12.22° C | 72% | 1012 hPa | 0 mm | - | 0 W/m² | - |
| 1777858873 | 12.22° C | 71% | 1012 hPa | 0 mm | - | 0 W/m² | - |
| 1777858273 | 12.22° C | 70% | 1012 hPa | 0 mm | - | 0 W/m² | - |
| 1777857673 | 12.78° C | 70% | 1012.1 hPa | 0 mm | - | 0 W/m² | - |
| 1777857073 | 12.78° C | 69% | 1012 hPa | 0 mm | - | 0 W/m² | - |
| 1777856473 | 13.33° C | 69% | 1012.1 hPa | 0 mm | - | 0 W/m² | - |
| 1777855873 | 13.33° C | 68% | 1012.1 hPa | 0 mm | - | 0 W/m² | - |
| 1777855273 | 13.89° C | 68% | 1012.1 hPa | 0 mm | - | 0 W/m² | - |
| 1777854673 | 13.89° C | 68% | 1012.2 hPa | 0 mm | - | 0 W/m² | - |
| 1777854072 | 14.44° C | 68% | 1012.3 hPa | 0 mm | - | 0 W/m² | - |
| 1777853472 | 14.44° C | 67% | 1012.4 hPa | 0 mm | - | 0 W/m² | - |
| 1777852873 | 14.44° C | 67% | 1012.4 hPa | 0 mm | - | 0 W/m² | - |
| 1777852273 | 14.44° C | 66% | 1012.4 hPa | 0 mm | - | 0 W/m² | - |
| 1777851672 | 14.44° C | 65% | 1012.5 hPa | 0 mm | - | 0 W/m² | - |
| 1777851072 | 15° C | 65% | 1012.5 hPa | 0 mm | - | 0 W/m² | - |
| 1777850472 | 15° C | 64% | 1012.5 hPa | 0 mm | - | 0 W/m² | - |
| 1777849872 | 15° C | 63% | 1012.6 hPa | 0 mm | - | 0 W/m² | - |
| 1777849272 | 15.56° C | 62% | 1012.6 hPa | 0 mm | - | 0 W/m² | - |
| 1777848672 | 15.56° C | 61% | 1012.5 hPa | 0 mm | - | 0 W/m² | - |
| 1777848073 | 15.56° C | 61% | 1012.5 hPa | 0 mm | - | 0 W/m² | - |
| 1777847472 | 16.11° C | 60% | 1012.5 hPa | 0 mm | - | 0 W/m² | - |
| 1777846872 | 16.67° C | 59% | 1012.3 hPa | 0 mm | - | 0 W/m² | - |
| 1777846272 | 16.67° C | 59% | 1012.2 hPa | 0 mm | - | 0 W/m² | - |
| 1777845672 | 16.67° C | 59% | 1012.1 hPa | 0 mm | - | 0 W/m² | - |
| 1777845072 | 16.67° C | 59% | 1012 hPa | 0 mm | - | 0 W/m² | - |
* Rain latest hour (hover to see other rain measurements)
** Current wind speed in m/s (hover to see current wind gust speed)